Time,TemperatureF,DewpointF,PressureIn,WindDirection,WindDirectionDegrees,WindSpeedMPH,WindSpeedGustMPH,Humidity,HourlyPrecipIn,Conditions,Clouds,dailyrainin,SoftwareType,DateUTC
2013-08-05 00:02:00,73.0,71.0,29.97,ENE,77,0.0,0.0,93,0.00,,,0.03,,2013-08-05 04:02:00,
2013-08-05 00:12:00,73.0,71.0,29.97,ENE,77,0.0,0.0,94,0.00,,,0.03,,2013-08-05 04:12:00,
2013-08-05 00:22:00,73.0,71.0,29.97,ENE,77,0.0,0.0,94,0.00,,,0.03,,2013-08-05 04:22:00,
2013-08-05 00:32:00,73.0,71.0,29.97,ENE,77,0.0,0.0,93,0.00,,,0.03,,2013-08-05 04:32:00,
2013-08-05 00:43:00,73.0,71.0,29.97,ENE,77,0.0,0.0,94,0.00,,,0.03,,2013-08-05 04:43:00,
2013-08-05 00:52:00,72.0,70.0,29.97,ENE,77,0.0,0.0,94,0.00,,,0.03,,2013-08-05 04:52:00,
2013-08-05 01:02:00,72.0,70.0,29.97,ENE,77,0.0,0.0,94,0.00,,,0.03,,2013-08-05 05:02:00,
2013-08-05 01:12:00,72.0,70.0,29.97,ENE,77,0.0,0.0,95,0.00,,,0.03,,2013-08-05 05:12:00,
2013-08-05 01:22:00,71.0,69.0,29.97,ENE,77,0.0,0.0,95,0.00,,,0.03,,2013-08-05 05:22:00,
2013-08-05 01:32:00,71.0,69.0,29.97,ENE,77,0.0,0.0,95,0.00,,,0.03,,2013-08-05 05:32:00,
2013-08-05 01:43:00,71.0,70.0,29.98,ENE,77,0.0,0.0,96,0.00,,,0.03,,2013-08-05 05:43:00,
2013-08-05 01:53:00,71.0,70.0,29.98,ENE,77,0.0,0.0,96,0.00,,,0.03,,2013-08-05 05:53:00,
2013-08-05 02:02:00,71.0,70.0,29.98,ENE,77,0.0,0.0,96,0.00,,,0.03,,2013-08-05 06:02:00,
2013-08-05 02:12:00,72.0,70.0,29.97,ENE,77,0.0,0.0,94,0.00,,,0.03,,2013-08-05 06:12:00,
2013-08-05 02:22:00,73.0,70.0,29.96,NW,315,0.0,1.0,90,0.00,,,0.03,,2013-08-05 06:22:00,
2013-08-05 02:32:00,73.0,70.0,29.96,NW,315,0.0,1.0,90,0.00,,,0.03,,2013-08-05 06:32:00,
2013-08-05 02:43:00,74.0,70.0,29.96,ENE,67,0.0,1.0,88,0.00,,,0.03,,2013-08-05 06:43:00,
2013-08-05 02:52:00,74.0,70.0,29.96,NNE,20,0.0,1.0,88,0.00,,,0.03,,2013-08-05 06:52:00,
2013-08-05 03:02:00,74.0,70.0,29.96,NNE,20,0.0,1.0,88,0.00,,,0.03,,2013-08-05 07:02:00,
2013-08-05 03:12:00,74.0,70.0,29.95,ENE,62,0.0,4.0,87,0.00,,,0.03,,2013-08-05 07:12:00,
2013-08-05 03:22:00,75.0,71.0,29.95,ENE,63,0.0,1.0,87,0.00,,,0.03,,2013-08-05 07:22:00,
2013-08-05 03:32:00,75.0,71.0,29.95,ENE,63,0.0,1.0,87,0.00,,,0.03,,2013-08-05 07:32:00,
2013-08-05 03:43:00,74.0,71.0,29.94,ENE,63,0.0,0.0,89,0.00,,,0.03,,2013-08-05 07:43:00,
2013-08-05 03:53:00,74.0,71.0,29.94,ENE,66,0.0,2.0,90,0.00,,,0.03,,2013-08-05 07:53:00,
2013-08-05 04:02:00,74.0,71.0,29.94,ENE,66,0.0,2.0,90,0.00,,,0.03,,2013-08-05 08:02:00,
2013-08-05 04:12:00,74.0,71.0,29.94,North,355,0.0,1.0,90,0.00,,,0.03,,2013-08-05 08:12:00,
2013-08-05 04:22:00,74.0,71.0,29.94,SSW,198,0.0,2.0,89,0.00,,,0.03,,2013-08-05 08:22:00,
2013-08-05 04:34:00,74.0,71.0,29.94,SSW,198,0.0,2.0,89,0.00,,,0.03,,2013-08-05 08:34:00,
2013-08-05 04:53:00,75.0,72.0,29.95,NE,51,0.0,1.0,89,0.00,,,0.03,,2013-08-05 08:53:00,
2013-08-05 05:06:00,75.0,72.0,29.95,NE,51,0.0,1.0,89,0.00,,,0.03,,2013-08-05 09:06:00,
2013-08-05 05:17:00,75.0,72.0,29.93,ENE,65,1.0,2.0,89,0.00,,,0.03,,2013-08-05 09:17:00,
2013-08-05 05:27:00,75.0,71.0,29.92,WNW,303,0.0,4.0,88,0.00,,,0.03,,2013-08-05 09:27:00,
2013-08-05 05:38:00,75.0,71.0,29.92,WNW,303,0.0,4.0,88,0.00,,,0.03,,2013-08-05 09:38:00,
2013-08-05 05:48:00,76.0,72.0,29.92,East,80,0.0,4.0,88,0.00,,,0.03,,2013-08-05 09:48:00,
2013-08-05 05:53:00,75.0,72.0,29.93,SSW,197,0.0,2.0,89,0.00,,,0.03,,2013-08-05 09:53:00,
2013-08-05 06:09:00,75.0,72.0,29.93,SSW,197,0.0,2.0,89,0.00,,,0.03,,2013-08-05 10:09:00,
2013-08-05 06:15:00,75.0,72.0,29.92,NE,34,0.0,4.0,89,0.00,,,0.03,,2013-08-05 10:15:00,
2013-08-05 06:26:00,75.0,72.0,29.92,ESE,111,0.0,3.0,89,0.00,,,0.03,,2013-08-05 10:26:00,
2013-08-05 06:33:00,75.0,72.0,29.92,ESE,111,0.0,3.0,89,0.00,,,0.03,,2013-08-05 10:33:00,
2013-08-05 06:47:00,75.0,72.0,29.92,NE,41,0.0,4.0,90,0.00,,,0.03,,2013-08-05 10:47:00,
2013-08-05 06:52:00,74.0,71.0,29.92,ENE,67,0.0,1.0,91,0.00,,,0.03,,2013-08-05 10:52:00,
2013-08-05 07:09:00,74.0,71.0,29.92,ENE,67,0.0,1.0,91,0.00,,,0.03,,2013-08-05 11:09:00,
2013-08-05 07:14:00,74.0,72.0,29.92,South,171,0.0,3.0,92,0.00,,,0.03,,2013-08-05 11:14:00,
2013-08-05 07:36:00,74.0,72.0,29.92,ENE,67,0.0,2.0,92,0.00,,,0.03,,2013-08-05 11:36:00,
2013-08-05 07:49:00,74.0,72.0,29.93,North,5,0.0,1.0,92,0.00,,,0.03,,2013-08-05 11:49:00,
2013-08-05 07:56:00,74.0,72.0,29.93,North,5,0.0,1.0,93,0.00,,,0.03,,2013-08-05 11:56:00,
2013-08-05 08:06:00,74.0,72.0,29.93,North,5,0.0,1.0,93,0.00,,,0.03,,2013-08-05 12:06:00,
2013-08-05 08:17:00,74.0,72.0,29.96,WNW,298,0.0,1.0,94,0.00,,,0.03,,2013-08-05 12:17:00,
2013-08-05 08:27:00,74.0,72.0,29.96,West,265,0.0,1.0,93,0.01,,,0.04,,2013-08-05 12:27:00,
2013-08-05 08:33:00,74.0,72.0,29.96,West,265,0.0,1.0,93,0.01,,,0.04,,2013-08-05 12:33:00,
2013-08-05 08:48:00,74.0,72.0,29.94,NE,49,0.0,2.0,94,0.01,,,0.04,,2013-08-05 12:48:00,
2013-08-05 09:02:00,73.0,72.0,29.95,NE,50,0.0,0.0,96,0.02,,,0.05,,2013-08-05 13:02:00,
2013-08-05 09:14:00,73.0,72.0,29.95,NE,49,0.0,0.0,97,0.03,,,0.06,,2013-08-05 13:14:00,
2013-08-05 09:26:00,73.0,72.0,29.93,NE,50,0.0,0.0,97,0.04,,,0.08,,2013-08-05 13:26:00,
2013-08-05 09:38:00,73.0,72.0,29.93,NE,50,0.0,0.0,97,0.04,,,0.08,,2013-08-05 13:38:00,
2013-08-05 10:06:00,73.0,72.0,29.94,NE,49,0.0,0.0,98,0.04,,,0.09,,2013-08-05 14:06:00,
2013-08-05 10:17:00,73.0,72.0,29.93,NE,49,0.0,0.0,97,0.04,,,0.10,,2013-08-05 14:17:00,
2013-08-05 10:53:00,76.0,75.0,29.92,SSW,205,0.0,4.0,96,0.01,,,0.10,,2013-08-05 14:53:00,
2013-08-05 11:07:00,76.0,75.0,29.92,SSW,205,0.0,4.0,96,0.01,,,0.10,,2013-08-05 15:07:00,
2013-08-05 11:25:00,77.0,75.0,29.91,WNW,284,0.0,2.0,94,0.00,,,0.10,,2013-08-05 15:25:00,
2013-08-05 11:37:00,77.0,75.0,29.91,WNW,284,0.0,2.0,94,0.00,,,0.10,,2013-08-05 15:37:00,
2013-08-05 11:47:00,78.0,75.0,29.91,West,277,0.0,5.0,92,0.00,,,0.10,,2013-08-05 15:47:00,
2013-08-05 12:08:00,80.0,76.0,29.91,West,265,0.0,5.0,89,0.00,,,0.10,,2013-08-05 16:08:00,
2013-08-05 12:25:00,82.0,77.0,29.91,West,267,0.0,4.0,84,0.00,,,0.08,,2013-08-05 16:25:00,
2013-08-05 12:33:00,82.0,77.0,29.91,West,267,0.0,4.0,84,0.00,,,0.08,,2013-08-05 16:33:00,
2013-08-05 12:45:00,83.0,77.0,29.91,WSW,255,0.0,5.0,81,0.00,,,0.08,,2013-08-05 16:45:00,
2013-08-05 13:16:00,86.0,77.0,29.90,South,180,1.0,9.0,74,0.00,,,0.08,,2013-08-05 17:16:00,
2013-08-05 13:22:00,86.0,76.0,29.90,NE,43,1.0,7.0,73,0.00,,,0.07,,2013-08-05 17:22:00,
2013-08-05 13:36:00,86.0,76.0,29.90,NE,43,1.0,7.0,73,0.00,,,0.07,,2013-08-05 17:36:00,
2013-08-05 13:48:00,86.0,77.0,29.90,NW,306,0.0,6.0,75,0.00,,,0.07,,2013-08-05 17:48:00,
2013-08-05 13:55:00,86.0,77.0,29.90,WSW,248,0.0,2.0,75,0.00,,,0.07,,2013-08-05 17:55:00,
2013-08-05 14:08:00,86.0,77.0,29.90,WSW,248,0.0,2.0,75,0.00,,,0.07,,2013-08-05 18:08:00,
2013-08-05 14:13:00,85.0,76.0,29.89,NNE,12,0.0,5.0,75,0.00,,,0.07,,2013-08-05 18:13:00,
2013-08-05 14:26:00,87.0,77.0,29.88,WNW,290,1.0,7.0,73,0.00,,,0.07,,2013-08-05 18:26:00,
2013-08-05 14:44:00,88.0,77.0,29.88,SW,236,1.0,8.0,71,0.00,,,0.07,,2013-08-05 18:44:00,
2013-08-05 14:53:00,89.0,77.0,29.88,West,260,1.0,6.0,68,0.00,,,0.07,,2013-08-05 18:53:00,
2013-08-05 15:05:00,89.0,77.0,29.88,West,260,1.0,6.0,68,0.00,,,0.07,,2013-08-05 19:05:00,
2013-08-05 15:14:00,88.0,77.0,29.88,WSW,250,0.0,7.0,69,0.00,,,0.07,,2013-08-05 19:14:00,
2013-08-05 15:26:00,88.0,77.0,29.87,WSW,238,0.0,5.0,71,0.00,,,0.07,,2013-08-05 19:26:00,
2013-08-05 15:37:00,88.0,77.0,29.87,WSW,238,0.0,5.0,71,0.00,,,0.07,,2013-08-05 19:37:00,
2013-08-05 15:50:00,90.0,77.0,29.87,West,277,1.0,4.0,65,0.00,,,0.07,,2013-08-05 19:50:00,
2013-08-05 16:09:00,89.0,77.0,29.87,West,275,0.0,4.0,67,0.00,,,0.07,,2013-08-05 20:09:00,
2013-08-05 16:15:00,89.0,77.0,29.86,WSW,252,0.0,5.0,68,0.00,,,0.07,,2013-08-05 20:15:00,
2013-08-05 16:37:00,88.0,78.0,29.86,South,184,0.0,4.0,72,0.00,,,0.07,,2013-08-05 20:37:00,
2013-08-05 16:47:00,89.0,79.0,29.85,NE,53,0.0,4.0,72,0.00,,,0.07,,2013-08-05 20:47:00,
2013-08-05 17:06:00,89.0,77.0,29.85,WSW,254,0.0,5.0,69,0.00,,,0.07,,2013-08-05 21:06:00,
2013-08-05 17:26:00,90.0,78.0,29.84,SSW,200,0.0,6.0,68,0.00,,,0.07,,2013-08-05 21:26:00,
2013-08-05 17:33:00,90.0,78.0,29.84,SSW,200,0.0,6.0,68,0.00,,,0.07,,2013-08-05 21:33:00,
2013-08-05 17:46:00,90.0,79.0,29.84,WSW,240,0.0,4.0,71,0.00,,,0.07,,2013-08-05 21:46:00,
2013-08-05 17:53:00,90.0,78.0,29.83,West,275,0.0,3.0,69,0.00,,,0.07,,2013-08-05 21:53:00,
2013-08-05 18:05:00,90.0,78.0,29.83,West,275,0.0,3.0,69,0.00,,,0.07,,2013-08-05 22:05:00,
2013-08-05 18:14:00,89.0,79.0,29.83,NW,325,0.0,2.0,72,0.00,,,0.07,,2013-08-05 22:14:00,
2013-08-05 18:26:00,89.0,78.0,29.83,WNW,293,0.0,4.0,70,0.00,,,0.07,,2013-08-05 22:26:00,
2013-08-05 18:44:00,90.0,78.0,29.82,West,276,0.0,4.0,69,0.00,,,0.07,,2013-08-05 22:44:00,
2013-08-05 18:53:00,90.0,80.0,29.80,NNE,13,0.0,4.0,72,0.00,,,0.07,,2013-08-05 22:53:00,
2013-08-05 19:07:00,90.0,80.0,29.80,NNE,13,0.0,4.0,72,0.00,,,0.07,,2013-08-05 23:07:00,
2013-08-05 19:25:00,89.0,79.0,29.80,West,275,0.0,1.0,73,0.00,,,0.07,,2013-08-05 23:25:00,
2013-08-05 19:33:00,89.0,79.0,29.80,West,275,0.0,1.0,73,0.00,,,0.07,,2013-08-05 23:33:00,
2013-08-05 19:46:00,89.0,80.0,29.80,WNW,296,0.0,0.0,75,0.00,,,0.07,,2013-08-05 23:46:00,
2013-08-05 20:02:00,88.0,79.0,29.80,NE,42,0.0,0.0,74,0.00,,,0.07,,2013-08-06 00:02:00,
2013-08-05 20:15:00,88.0,79.0,29.80,NNE,13,0.0,1.0,75,0.00,,,0.07,,2013-08-06 00:15:00,
2013-08-05 20:24:00,87.0,79.0,29.79,NNW,340,0.0,1.0,77,0.00,,,0.07,,2013-08-06 00:24:00,
2013-08-05 20:45:00,86.0,79.0,29.79,NNW,340,0.0,0.0,79,0.00,,,0.07,,2013-08-06 00:45:00,
2013-08-05 21:14:00,84.0,79.0,29.80,NNW,340,0.0,0.0,86,0.00,,,0.07,,2013-08-06 01:14:00,
2013-08-05 21:38:00,82.0,78.0,29.80,NNW,340,0.0,0.0,88,0.00,,,0.07,,2013-08-06 01:38:00,
2013-08-05 21:48:00,81.0,78.0,29.80,NNW,340,0.0,0.0,90,0.00,,,0.07,,2013-08-06 01:48:00,